STARLINK-11568, 63307

Orbit data source: Space-Track

STARLINK-11568, 63307 is a payload satellite owned by SpaceX/Seattle (US) in LEO that was launched on Tue, 18 Mar 2025 UTC via an FALCON 9 launch vehicle from the Air Force Eastern Test Range (AFETR). Payload-class satellites include a variety of spacecraft equipped with specific instruments for various scientific and technological missions. These include communications satellites like Starlink; space stations such as the ISS; scientific satellites like the Hubble; Earth observation satellites from companies like Planet Labs, Umbra, and HawkEye 360; GPS; miniature CubeSats for education and research; and military/defense satellites.

Loading next visibility...
Identifier
63307, 2025-057A
Orbit
LEO
Last TLE update
1 day ago
Origin
Manufacturer
SpaceX/Seattle
Mission
Operational Commercial Communications
Bus & Motor
STARLINK V2M, Unknown motor
Mass
730 kg wet, ~700 kg dry
Launch date (UTC)
2025-03-18 (4 months ago)
Launch vehicle
FALCON 9
Launch site
Air Force Eastern Test Range (AFETR)
Object type
Payload
Rocket body
Debris
Shape & HBR
Box + 2 Pan, 29 m
Radar Cross Section
36.964 m², Large (>1 m²)

Expand to show TLE details & history

TLE from 1 day ago
0 STARLINK-11568
1 63307U 25057A   25182.48766231  .00153417  00000-0  11743-2 0  9992
2 63307  43.0008 338.3751 0002576 267.7342  92.3231 15.70896549 17672
Epoch: 2025-07-01T11:42Z
TLE epoch observation values (Epoch: 2025-07-01T11:42:14.023Z)
Latitude
-0°
Longitude
-116.96574°
Altitude
356.175 km
Speed
7.697 km/s
True Right ascension
22h 33m 30s
True Declination
0° 00' 00"
Sunlit
Object was in full shadow at epoch
Visualization orbit readout
Latitude
-29.24901°
Longitude
-162.02051°
Altitude
361.49 km
Speed
7.694 km/s
Apparent Right ascension
20h 07m 32s
Apparent Declination
-34° 37' 22"
Sunlit
Object is in full shadow
Visualization observer readout
Local Sidereal Time
08:48:45
Azimuth
60.367° ENE
Elevation
-80.249°
Doppler factor
1
Orbital elements
Apogee altitude
360.05 km
Perigee altitude
356.58 km
Semi-major axis
6,736.452 km
Eccentricity
0.00026
Inclination
43.0008°
RAAN
338.3751°
Arg. of periapsis
267.7342°
True anomaly
Unknown
Mean anomaly
92.3231°
Eccentric anomaly
Unknown
Mean motion
3.92551 °/min
Orbital period
91.71 mins
BSTAR
0.0011743
Loading maneuver chart data...
Loading SW <> Apogee altitude chart data...
Loading historical data...
Loading historical data...
Loading historical data...
Loading historical data...
Loading historical data...
Loading historical data...
Loading historical data...

STARLINK-11568 Visibility forecast

Observer location: undefined°, undefined°

Span
Click to sort rows by Start time (UTC) header in descending order
Start Az.
Max El. time (UTC)
Max El. Az.
Max El.
End time (UTC)
End Az.
4 mins2025-07-03 12:43:36.996Z193.029° SSW2025-07-03 12:45:36.996Z142.128° SSE19.66°2025-07-03 12:47:36.996Z97.446° ESE
4 mins2025-07-03 14:19:36.996Z259.01° W2025-07-03 14:21:36.996Z46.582° ENE42.049°2025-07-03 14:23:36.996Z69.569° E
4 mins2025-07-03 17:32:36.996Z290.87° WNW2025-07-03 17:33:36.996Z312° NW44.491°2025-07-03 17:36:36.996Z107.16° ESE
|